Location: Spruce Knob
(38.6995°N, 79.5330°W)
Time: 19:15:52
(UTC-05:00)

Courier 1B - Visible Passes

Search period start: 22 January 2022 00:00
Search period end: 01 February 2022 00:00
Orbit: 962 x 1209 km, 28.3° (Epoch: 22 January)

Date Brightness Start Highest point End Pass type
(mag) Time Alt. Az. Time Alt. Az. Time Alt. Az.
22 Jan 9.2 19:39:51 10° SSW 19:45:36 22° SSE 19:46:22 22° SSE visible
22 Jan 10.1 21:32:09 10° SW 21:33:16 14° SW 21:33:16 14° SW visible
23 Jan 9.6 18:46:56 10° SSW 18:51:54 18° SSE 18:56:02 12° ESE visible
23 Jan 9.2 20:38:29 10° SW 20:42:56 28° SSW 20:42:56 28° SSW visible
24 Jan 9.8 17:54:34 10° S 17:58:14 14° SSE 18:01:55 10° ESE visible
24 Jan 8.9 19:45:00 10° SW 19:51:33 30° SSE 19:52:34 29° SSE visible
24 Jan 10.1 21:38:04 10° WSW 21:39:28 16° WSW 21:39:28 16° WSW visible
25 Jan 9.2 18:51:40 10° SSW 18:57:47 26° SSE 19:02:12 16° ESE visible
25 Jan 9.1 20:44:17 10° WSW 20:49:05 32° SSW 20:49:05 32° SSW visible
26 Jan 9.5 17:58:36 10° SSW 18:04:05 21° SSE 18:09:38 10° ESE visible
26 Jan 8.7 19:50:37 10° SW 19:57:33 36° S 19:58:42 34° SSE visible
26 Jan 10.1 21:44:11 10° WSW 21:45:36 16° WSW 21:45:36 16° WSW visible
27 Jan 9.0 18:57:05 10° SW 19:03:45 33° SSE 19:08:19 19° ESE visible
27 Jan 9.1 20:50:19 10° WSW 20:55:13 33° SW 20:55:13 33° SW visible
28 Jan 9.2 18:03:43 10° SW 18:10:00 29° SSE 18:16:27 10° ESE visible
28 Jan 8.6 19:56:33 10° WSW 20:03:36 39° S 20:04:49 37° SSE visible
28 Jan 10.1 21:50:30 10° WSW 21:51:43 15° WSW 21:51:43 15° WSW visible
29 Jan 8.8 19:02:53 10° WSW 19:09:47 37° S 19:14:26 20° ESE visible
29 Jan 9.2 20:56:33 10° WSW 21:01:20 31° SW 21:01:20 31° SW visible
30 Jan 9.0 18:09:21 10° SW 18:15:59 35° S 18:22:52 10° ESE visible
30 Jan 8.7 20:02:42 10° WSW 20:09:40 38° S 20:10:58 35° SSE visible
30 Jan 10.3 21:57:05 10° WSW 21:57:52 13° WSW 21:57:52 13° WSW visible
31 Jan 8.8 19:08:56 10° WSW 19:15:51 38° S 19:20:38 20° SE visible
31 Jan 9.4 21:02:59 10° WSW 21:07:31 27° SW 21:07:31 27° SW visible
